User: anonymous   Login
Location: Unspecified
(0.0000°N, 0.0000°E)
Time: 02:06:57
(UTC+00:00)
Language:

SES-16/GOVSAT-1 - Orbit

View from above orbital plane
View from above orbital plane
View from above satellite
View from above satellite

Ground track
Ground track

The orbit data is extracted from the following two-line orbital elements,

1 43178U 18013A   22263.67571504 0.00000000  00000-0  00000-0 0    09
2 43178   0.0050 264.2304 0001000 210.5537 149.4463  1.00270000    06
Epoch (UTC): 20 September 2022 16:13:01
Eccentricity: 0.0001000
inclination: 0.0050°
perigee height: 35782 km
apogee height: 35791 km
right ascension of ascending node: 264.2304°
argument of perigee: 210.5537°
revolutions per day: 1.00270000
mean anomaly at epoch: 149.4463°
orbit number at epoch: 0

The dashed part of the orbit path shows where the satellite is in the earth's shadow,  

DLR